Total_Precipitation_Accumulation
1.07 1.52 1.54 1.32 1.14 1.16 1.07 0.95 1.38 1.58 1.42 1.93 4.20 2.64 1.54 1.26 1.31 0.83 0.26 0.08 0.10 0.23 0.42 0.13 0.06 0.08 0.16 0.34 0.56 0.70 0.92 0.44 0.10 0.04 0.04 0.00 0.00 0.02 0.01 0.00 0.01 0.01 0.05 0.04 0.11
1.52 2.15 3.09 1.77 2.03 1.31 0.85 1.03 1.39 1.60 1.49 2.06 4.67 4.44 2.31 1.81 1.27 0.51 0.11 0.09 0.27 0.52 0.39 0.22 0.10 0.14 0.19 0.32 0.76 1.09 0.91 0.30 0.07 0.07 0.07 0.02 0.00 0.01 0.01 0.02 0.06 0.14 0.13 0.08 0.21
1.83 2.59 2.31 2.07 2.10 1.48 0.98 0.97 1.23 1.21 1.32 2.28 3.86 4.69 2.43 1.50 1.15 0.30 0.20 0.27 0.62 0.97 0.53 0.24 0.30 0.36 0.17 0.32 0.62 0.78 0.46 0.05 0.04 0.17 0.25 0.15 0.02 0.02 0.02 0.05 0.01 0.07 0.16 0.30 0.58
1.18 1.71 1.82 1.65 1.39 1.25 1.01 0.89 1.17 1.31 1.41 2.14 3.53 3.29 1.97 1.48 0.87 0.32 0.16 0.40 0.90 1.51 1.02 0.42 0.35 0.42 0.21 0.16 0.30 0.45 0.12 0.10 0.15 0.19 0.31 0.21 0.12 0.11 0.09 0.02 0.01 0.05 0.21 0.41 0.59
1.02 1.34 1.33 1.24 1.05 1.40 1.14 1.02 1.28 1.34 1.10 2.01 2.93 2.57 1.71 1.29 0.49 0.33 0.51 0.40 0.87 1.70 1.03 0.60 0.37 0.40 0.22 0.07 0.23 0.31 0.19 0.19 0.27 0.27 0.20 0.22 0.36 0.14 0.05 0.03 0.04 0.11 0.28 0.36 0.55
1.07 1.16 1.25 1.27 1.52 1.83 1.68 1.66 1.53 1.09 0.89 1.56 2.20 1.89 1.32 0.94 0.17 0.24 0.55 0.59 0.76 1.39 1.22 1.15 0.48 0.46 0.24 0.14 0.18 0.10 0.35 0.43 0.54 0.43 0.50 0.39 0.32 0.30 0.08 0.07 0.18 0.26 0.32 0.25 0.32
1.18 1.52 1.66 1.65 1.92 1.76 1.64 1.48 1.20 1.09 1.12 1.61 1.92 1.39 1.37 0.75 0.10 0.26 0.47 0.82 1.08 1.23 1.09 1.26 0.71 1.00 0.55 0.26 0.08 0.18 0.54 0.72 0.68 0.60 0.55 0.63 0.52 0.36 0.15 0.13 0.20 0.29 0.42 0.54 0.34
0.97 1.06 1.22 1.38 1.32 1.19 1.09 0.95 0.84 0.83 1.58 1.83 1.69 1.38 0.90 0.29 0.07 0.18 0.34 0.82 1.01 1.18 1.24 1.50 1.11 1.17 0.79 0.28 0.21 0.32 0.55 0.90 0.57 0.75 0.71 0.89 0.58 0.16 0.23 0.23 0.21 0.22 0.33 0.58 0.50
0.75 0.95 1.00 0.90 0.83 0.87 0.91 0.83 0.83 0.94 1.59 1.99 1.56 1.20 0.78 0.24 0.13 0.17 0.18 0.60 1.06 1.48 1.72 2.25 2.19 1.35 1.06 0.60 0.62 0.44 0.39 0.51 0.63 0.66 0.93 0.90 0.55 0.34 0.20 0.20 0.14 0.19 0.17 0.26 0.67
0.67 0.76 0.74 0.58 0.61 0.96 1.36 1.31 1.69 1.84 2.04 1.90 1.57 1.45 0.78 0.20 0.15 0.20 0.24 0.72 1.44 1.97 2.60 3.07 3.35 1.72 1.26 1.00 0.95 0.30 0.25 0.30 0.51 0.46 0.90 0.77 0.65 0.56 0.29 0.13 0.13 0.11 0.10 0.09 0.20
0.62 0.64 0.61 0.61 0.80 1.42 2.07 1.95 1.63 2.59 2.04 1.90 1.22 0.64 0.54 0.29 0.33 0.38 0.50 1.23 2.16 2.64 2.40 2.44 2.65 1.38 0.76 0.38 0.42 0.33 0.20 0.22 0.26 0.29 0.62 0.68 0.39 0.51 0.53 0.27 0.19 0.16 0.06 0.04 0.08
0.54 0.67 0.71 0.76 1.19 1.74 1.72 2.03 1.51 1.94 2.73 1.35 0.59 0.46 0.24 0.34 0.56 0.54 1.08 2.50 2.15 2.60 1.96 1.73 1.38 0.68 0.48 0.57 0.49 0.36 0.29 0.30 0.35 0.58 0.58 0.66 0.50 0.33 0.55 0.38 0.29 0.27 0.14 0.07 0.05
0.61 0.70 0.77 0.87 1.19 1.91 1.41 1.93 1.41 0.88 1.80 1.84 0.91 0.60 0.31 0.58 0.83 0.85 1.66 2.56 1.99 2.00 1.64 0.96 0.63 0.64 0.59 0.53 0.72 0.42 0.31 0.26 0.56 0.51 0.56 0.63 0.61 0.25 0.22 0.24 0.25 0.27 0.38 0.16 0.10
0.72 0.73 0.91 1.13 1.55 1.42 2.13 1.40 1.36 0.91 1.29 1.90 1.35 0.72 0.58 0.84 1.13 0.87 1.35 2.12 2.27 1.94 1.81 1.21 0.57 0.51 0.60 0.81 0.63 0.42 0.27 0.36 0.55 0.77 0.60 0.46 0.56 0.14 0.09 0.16 0.21 0.14 0.33 0.33 0.18
0.71 0.81 0.96 1.47 1.47 1.33 1.66 1.48 1.27 1.06 1.84 1.84 1.27 0.66 0.58 0.82 1.03 1.10 1.25 1.77 1.58 1.82 1.93 1.27 0.65 0.67 0.68 0.78 0.41 0.38 0.31 0.36 0.47 0.68 0.63 0.28 0.47 0.11 0.09 0.10 0.10 0.11 0.12 0.39 0.44
1.13 1.25 1.36 1.28 1.09 0.99 0.99 1.45 1.52 1.21 1.88 1.45 0.96 0.80 0.85 0.62 0.55 0.66 1.15 1.55 1.74 1.67 1.52 0.91 0.60 0.77 0.53 0.53 0.60 0.90 0.76 0.67 0.48 0.62 0.90 0.42 0.34 0.14 0.12 0.13 0.19 0.31 0.16 0.32 0.66
1.56 1.83 1.86 1.48 1.06 0.72 1.17 1.49 1.59 1.18 0.86 0.54 0.42 0.32 0.29 0.25 0.37 0.42 0.71 0.96 1.35 1.76 1.93 1.40 0.84 0.66 0.45 0.77 0.91 0.89 0.96 1.26 1.14 1.12 0.49 0.30 0.55 0.26 0.02 0.05 0.15 0.35 0.11 0.17 0.53
1.62 1.49 1.25 1.03 0.93 1.36 1.30 1.10 1.48 1.01 0.45 0.21 0.11 0.23 0.19 0.20 0.25 0.25 0.49 0.61 0.55 0.47 1.16 1.51 1.49 0.79 0.57 0.39 0.78 0.33 0.46 1.42 1.21 0.82 0.44 0.52 0.71 0.35 0.05 0.03 0.12 0.28 0.12 0.10 0.38
1.85 1.52 1.42 1.14 1.03 1.56 1.22 1.04 1.24 0.71 0.21 0.11 0.21 0.32 0.42 0.18 0.14 0.31 0.38 0.24 0.17 0.21 0.58 0.90 0.96 0.42 0.31 0.18 0.33 0.52 0.46 0.33 0.73 0.52 0.77 0.54 0.57 0.55 0.28 0.05 0.19 0.26 0.22 0.20 0.29
1.48 1.67 1.38 1.16 1.13 1.39 1.21 0.93 0.63 0.10 0.00 0.02 0.11 0.09 0.16 0.16 0.18 0.18 0.27 0.24 0.23 0.26 0.21 0.16 0.50 0.27 0.26 0.36 0.30 0.26 0.18 0.29 0.73 0.78 0.60 0.31 0.25 0.64 0.52 0.50 0.47 0.36 0.33 0.33 0.48
1.42 1.82 1.79 1.15 1.42 1.51 1.27 0.95 0.34 0.03 0.01 0.01 0.01 0.02 0.11 0.20 0.06 0.04 0.06 0.07 0.08 0.08 0.01 0.02 0.30 0.25 0.25 0.36 0.29 0.13 0.20 0.19 0.28 0.26 0.46 0.30 0.39 0.67 0.59 0.67 0.58 0.47 0.66 0.78 0.97
1.75 1.70 1.84 1.27 1.58 1.23 0.76 0.46 0.16 0.04 0.01 0.00 0.00 0.01 0.01 0.02 0.01 0.01 0.01 0.02 0.02 0.01 0.01 0.00 0.13 0.17 0.11 0.06 0.06 0.07 0.03 0.12 0.42 0.26 0.41 0.56 0.44 0.39 0.44 0.51 0.61 0.62 0.78 0.88 1.05
1.55 1.84 1.97 0.94 0.76 0.57 0.30 0.08 0.09 0.06 0.03 0.00 0.00 0.00 0.01 0.01 0.01 0.01 0.00 0.00 0.00 0.00 0.01 0.01 0.15 0.22 0.24 0.20 0.12 0.17 0.05 0.10 0.22 0.48 0.38 0.49 0.14 0.05 0.12 0.20 0.31 0.39 0.45 0.51 0.54
1.28 1.76 2.30 1.30 0.36 0.09 0.14 0.12 0.06 0.03 0.01 0.01 0.02 0.02 0.01 0.01 0.00 0.00 0.00 0.00 0.00 0.00 0.02 0.11 0.17 0.12 0.14 0.31 0.42 0.32 0.07 0.09 0.39 0.68 0.20 0.13 0.05 0.03 0.05 0.03 0.06 0.07 0.07 0.06 0.03
0.82 0.49 0.57 0.71 0.23 0.03 0.05 0.07 0.04 0.01 0.01 0.03 0.04 0.04 0.02 0.02 0.01 0.00 0.00 0.00 0.00 0.02 0.13 0.33 0.25 0.11 0.12 0.22 0.58 0.38 0.14 0.11 0.39 0.19 0.35 0.10 0.06 0.04 0.04 0.05 0.05 0.04 0.03 0.03 0.04
0.93 0.34 0.11 0.03 0.02 0.01 0.02 0.05 0.04 0.02 0.03 0.04 0.01 0.01 0.03 0.03 0.01 0.00 0.00 0.00 0.01 0.03 0.13 0.31 0.38 0.33 0.34 0.25 0.35 0.27 0.07 0.13 0.13 0.04 0.05 0.02 0.04 0.05 0.05 0.03 0.08 0.06 0.02 0.01 0.03
0.96 0.35 0.16 0.09 0.03 0.02 0.01 0.02 0.03 0.03 0.03 0.00 0.01 0.02 0.03 0.01 0.01 0.01 0.01 0.01 0.01 0.07 0.26 0.42 0.47 0.66 0.51 0.18 0.19 0.26 0.08 0.06 0.10 0.07 0.03 0.05 0.06 0.07 0.25 0.45 0.39 0.10 0.04 0.03 0.03